Flag for United Kingdom Weather past 2 weeks in Preston, England, United Kingdom

Now
45 °F

Partly cloudy.


Feels Like: 39 °F
Forecast: N/A
Wind: 10 mph from Southwest

Location: Blackpool Airport

Current Time: Jan 25, 2015 at 8:54:06 PM

Latest Report: Jan 25, 2015 at 8:20 PM


Visibility: N/A

Pressure: 30.15 "Hg

Humidity: 100%

Dew point: 45 °F

Location of PrestonLocation

Historic Weather in Preston — Graph

°F

Preston temperature yesterday

Maximum temperature yesterday: 45 °F (at 12:20 PM)
Minimum temperature yesterday: 41 °F (at 6:20 AM)
Average temperature yesterday: 43 °F

Past Weeks' High & Low Weather Summary

 TemperatureHumidityPressure
High50 °F (Jan 12, 7:20 AM)100% (Jan 18, 10:20 AM)30.42 "Hg (Jan 18, 10:20 AM)
Low27 °F (Jan 18, 8:20 AM)57% (Jan 13, 11:20 AM)28.88 "Hg (Jan 15, 6:20 AM)
Average40 °F79%29.80 "Hg
* Reported Jan 10 7:20 PM — Jan 25 7:50 PM, Preston, Weather by CustomWeather, © 2014

Note: Actual official high and low records may vary slightly from our data, if they occured in-between our weather recording intervals... More about our weather records

Advertising

Preston weather history for previous 24 hours

 ConditionsComfort  
Time TempWeatherWind HumidityBarometerVisibility
7:50 PM
Jan 25
46 °FOvercast.14 mph93%30.18 "HgN/A
7:20 PM46 °FPassing clouds.15 mph93%30.18 "HgN/A
6:50 PM46 °FOvercast.20 mph100%30.18 "Hg4 mi
6:20 PM46 °FFog.18 mph93%30.21 "Hg1 mi
5:50 PM46 °FFog.15 mph93%30.21 "Hg1 mi
5:20 PM46 °FFog.16 mph100%30.21 "Hg1 mi
4:50 PM46 °FFog.17 mph93%30.21 "Hg1 mi
4:20 PM46 °FPartly sunny.17 mph93%30.21 "Hg2 mi
3:50 PM46 °FPartly sunny.20 mph93%30.21 "HgN/A
3:20 PM46 °FPartly sunny.22 mph93%30.24 "HgN/A
2:50 PM46 °FPartly sunny.20 mph93%30.24 "HgN/A
2:20 PM46 °FScattered clouds.18 mph93%30.24 "HgN/A
1:50 PM46 °FScattered clouds.17 mph93%30.24 "HgN/A
1:20 PM46 °FScattered clouds.18 mph93%30.24 "HgN/A
12:20 PM46 °FScattered clouds.17 mph87%30.27 "HgN/A
11:50 AM46 °FScattered clouds.20 mph87%30.30 "HgN/A
11:20 AM46 °FScattered clouds.20 mph87%30.30 "HgN/A
10:20 AM45 °FPartly sunny.15 mph87%30.33 "HgN/A
9:50 AM45 °FBroken clouds.12 mph87%30.33 "HgN/A
9:20 AM45 °FPartly sunny.12 mph87%30.33 "HgN/A
8:50 AM43 °FScattered clouds.15 mph93%30.33 "HgN/A
8:20 AM41 °FScattered clouds.13 mph93%30.33 "HgN/A
7:50 AM41 °FPassing clouds.10 mph87%30.33 "HgN/A
7:20 AM41 °FPassing clouds.9 mph87%30.36 "HgN/A
6:50 AM41 °FClear.9 mph87%30.36 "Hg10 mi
6:20 AM41 °FClear.9 mph87%30.36 "Hg10 mi
8:50 PM
Jan 24
43 °FClear.10 mph81%30.39 "Hg10 mi
Weather by CustomWeather, © 2014

See weather overviewHow to use our weather pages